Hourly Weather Roundup
Issued by NWS Central Illinois

Home | Current Version | Previous Version | Text Only | Print | Product List | Glossary On
Versions: 1 2 3 4 5 6 7 8 9 10 11 12 13 14 15 16 17 18 19 20 21 22 23 24 25 26 27 28 29 30 31 32 33 34 35 36 37 38 39 40 41 42 43 44 45 46 47 48 49 50
000
NZUS43 KILX 252310
HWRILX

AREA WEATHER ROUNDUP
NATIONAL WEATHER SERVICE, LINCOLN IL
600 PM CDT MON MAY 25 2015


CITY           SKY/WX    TMP DP  RH WIND       PRES   REMARKS
BLOOMINGTON    MOSUNNY   81  61  50 SW18      29.97F HX  82
CHAMPAIGN      PTSUNNY   81  62  52 S21       29.97F HX  82
DANVILLE       CLOUDY    78  62  57 S17       29.96S HX  80
DECATUR        PTSUNNY   80  59  48 S14       29.96F HX  81
EFFINGHAM      CLOUDY    78  61  55 SE9       30.01F
FLORA          CLOUDY    77  66  68 S15       30.01F
GALESBURG      MOSUNNY   79  62  57 S12G18    29.91F HX  80
JACKSONVILLE   PTSUNNY   84  62  46 S9G17     29.92F HX  84
LACON          SUNNY     79  59  49 S12G17    29.92F HX  80
LAWRENCEVILLE  CLOUDY    77  66  68 S14       30.04S
LITCHFIELD     MOSUNNY   78  65  65 S15G23    29.95F HX  80
$$


CITY           SKY/WX    TMP DP  RH WIND       PRES   REMARKS
LINCOLN        MOSUNNY   82  61  48 S16       29.92S HX  83
MACOMB         MOSUNNY   80  62  54 S15       29.94F HX  81
MATTOON        CLOUDY    77  65  66 S18G24    29.99F
MT CARMEL AP   CLOUDY    79  64  61 S13       30.04S HX  81
OLNEY-NOBLE AP CLOUDY    77  66  69 S9        30.01F
PARIS          CLOUDY    78  65  63 S15G22    30.01S HX  80
PEORIA         SUNNY     83  57  41 SW15      29.93S HX  82
PONTIAC        MOSUNNY   82  61  49 SW12      29.95S HX  82
RANTOUL        PTSUNNY   85  58  40 S15G23    29.96F HX  84
ROBINSON       CLOUDY    78  65  63 S12G21    30.03F HX  80
SPRINGFIELD    MOSUNNY   83  63  50 S16       29.94F HX  84
TAYLORVILLE    PTSUNNY   79  66  65 S14G20    29.96F HX  81
$$

...REGIONAL REPORTS...


CITY           SKY/WX    TMP DP  RH WIND       PRES   REMARKS
CHICAGO O`HARE PTSUNNY   77  60  55 SW14G24   29.91F
KANKAKEE       PTSUNNY   81  59  47 SW13G23   29.95S HX  82
MOLINE         MOSUNNY   79  60  52 S15G24    29.88F HX  80
MOUNT VERNON   CLOUDY    77  66  69 S8        30.00F
PITTSFIELD     SUNNY     83  64  53 S9        29.91F HX  84
QUINCY         MOSUNNY   80  62  54 S12       29.89F HX  81
ROCKFORD       MOSUNNY   80  63  55 SW17G23   29.91R HX  81
$$


CITY           SKY/WX    TMP DP  RH WIND       PRES   REMARKS
BURLINGTON     PTSUNNY   78  65  63 S10       29.89F HX  80
CEDAR RAPIDS   MOSUNNY   78  63  59 S23G30    29.83F HX  80
DES MOINES     PTSUNNY   80  63  55 S18       29.78F HX  81
KIRKSVILLE     MOSUNNY   78  67  68 S8        29.86F HX  80
OTTUMWA        MOSUNNY   78  65  63 S16       29.84F HX  80
ST LOUIS       MOSUNNY   84  67  56 SE15      29.91F HX  86
$$


CITY           SKY/WX    TMP DP  RH WIND       PRES   REMARKS
TERRE HAUTE    CLOUDY    77  65  66 S14       30.02F
EVANSVILLE     CLOUDY    74  66  76 S12       30.05F
INDIANAPOLIS   CLOUDY    75  63  66 S15G26    30.02F
LAFAYETTE      CLOUDY    77  62  59 SW9G21    29.99R
MADISON        PTSUNNY   77  59  53 SW12G22   29.84R
MILWAUKEE      PTSUNNY   78  60  53 SW22G28   29.86F
$$




USA.gov is the U.S. government's official web portal to all federal, state and local government web resources and services.